Location: Austin
(30.3000°N, 97.7500°W)
Time: 02:54:58
(UTC-05:00)

CZ-4 R/B - Pass Details

Date: 01 October 2024
Orbit: 512 x 563 km, 97.6° (Epoch: 06 October)

Event Time Altitude Azimuth Distance (km) Brightness Sun altitude
Exits shadow 21:17:41 24° 347° (NNW) 1,175 3.2 -27.1°
Drops below altitude 10° 21:19:19 10° 348° (NNW) 1,841 4.2 -27.4°
Sets 21:21:29 0° 348° (NNW) 2,746 5.2 -27.9°
